Weather History for Rolla, ND

Change the Weather History Date:

Sunday, February 17, 2013

  Actual Average (KRUG) Record (KRUG)
Temperature  
Mean Temperature 25 °F -  
Max Temperature 35 °F 23 °F 51 °F (1981)
Min Temperature 15 °F 4 °F -27 °F (1956)
Degree Days  
Heating Degree Days 40    
Moisture  
Dew Point 25 °F    
Average Humidity 100    
Maximum Humidity 100    
Minimum Humidity 87    
Precipitation  
Precipitation 7.33 in - - ()
Sea Level Pressure  
Sea Level Pressure 29.50 in    
Wind  
Wind Speed 14 mph (WSW)    
Max Wind Speed 31 mph    
Max Gust Speed 37 mph    
Visibility 8 miles    
Events Rain , Snow    
Averages and records for this station are not official NWS values.
T = Trace of Precipitation, MM = Missing Value Source: NWS Daily Summary

Daily Weather History Graph

Daily Weather History Graph

Search for Another Location

Airport:

Trip Planner

Search our weather history database for the weather conditions in past years. The results will help you decide how hot, cold, wet, or windy it might be!

Date:

Astronomy

Feb. 17, 2013 Rise Set
Actual Time 7:42 AM CST 6:03 PM CST
Civil Twilight 7:10 AM CST 6:35 PM CST
Nautical Twilight 6:33 AM CST 7:12 PM CST
Astronomical Twilight 5:56 AM CST 7:48 PM CST
Moon 10:56 AM CST (2/17) 1:39 AM CST (2/17)
Length of Visible Light 11h 25m
Length of Day
10h 20m
Waxing Crescent, 49% of the Moon is Illuminated
Feb 17
Waxing Crescent
Feb 17
First Quarter
Feb 25
Full
Mar 4
Last Quarter
Mar 11
New

Hourly Weather History & Observations

Time (CST) Temp. Windchill Dew Point Humidity Pressure Visibility Wind Dir Wind Speed Gust Speed Precip Events Conditions
12:15 AM 15.8 °F 0.3 °F 15.8 °F 100% 29.70 in 10.0 mi SSW 16.1 mph - N/A   Clear
12:35 AM 15.8 °F 1.4 °F 15.8 °F 100% 29.69 in 10.0 mi SSW 13.8 mph - N/A   Clear
12:55 AM 15.8 °F 1.4 °F 15.8 °F 100% 29.69 in 10.0 mi SSW 13.8 mph - N/A   Clear
1:15 AM 15.8 °F 0.9 °F 15.8 °F 100% 29.68 in 10.0 mi SSW 15.0 mph - N/A   Clear
1:35 AM 15.8 °F 0.9 °F 15.8 °F 100% 29.67 in 10.0 mi SSW 15.0 mph - N/A   Clear
1:55 AM 15.8 °F 0.9 °F 15.8 °F 100% 29.66 in 10.0 mi SSW 15.0 mph - N/A   Clear
2:15 AM 15.8 °F 0.9 °F 15.8 °F 100% 29.65 in 10.0 mi SSW 15.0 mph - N/A   Clear
2:35 AM 15.8 °F 0.3 °F 15.8 °F 100% 29.64 in 10.0 mi SSW 16.1 mph - N/A   Clear
2:55 AM 17.6 °F 4.3 °F 17.6 °F 100% 29.63 in 10.0 mi SSW 12.7 mph - N/A   Scattered Clouds
3:15 AM 17.6 °F 2.7 °F 17.6 °F 100% 29.63 in 10.0 mi SSW 16.1 mph - N/A   Scattered Clouds
3:35 AM 17.6 °F 5.7 °F 17.6 °F 100% 29.61 in 10.0 mi SSW 10.4 mph - N/A   Scattered Clouds
3:55 AM 17.6 °F 3.7 °F 17.6 °F 100% 29.60 in 10.0 mi SSW 13.8 mph - N/A   Partly Cloudy
5:15 AM 23.0 °F 11.1 °F 23.0 °F 100% 29.56 in 10.0 mi SSW 12.7 mph - N/A   Overcast
5:35 AM 23.0 °F 9.6 °F 23.0 °F 100% 29.53 in 10.0 mi SSW 16.1 mph - N/A   Overcast
5:55 AM 23.0 °F 9.2 °F 23.0 °F 100% 29.53 in 10.0 mi SSW 17.3 mph - N/A   Overcast
6:15 AM 23.0 °F 10.1 °F 23.0 °F 100% 29.52 in 10.0 mi SSW 15.0 mph - N/A   Overcast
6:35 AM 24.8 °F 12.4 °F 24.8 °F 100% 29.51 in 10.0 mi SSW 15.0 mph - N/A   Overcast
6:55 AM 24.8 °F 11.9 °F 24.8 °F 100% 29.50 in 10.0 mi SSW 16.1 mph - N/A   Overcast
7:15 AM 24.8 °F 13.4 °F 24.8 °F 100% 29.49 in 10.0 mi South 12.7 mph - N/A   Mostly Cloudy
7:35 AM 24.8 °F 13.4 °F 24.8 °F 100% 29.47 in 10.0 mi South 12.7 mph - N/A   Overcast
7:55 AM 26.6 °F 15.2 °F 26.6 °F 100% 29.47 in 10.0 mi SSW 13.8 mph - N/A   Overcast
8:15 AM 24.8 °F 12.4 °F 24.8 °F 100% 29.46 in 10.0 mi SSW 15.0 mph - N/A   Scattered Clouds
8:35 AM 24.8 °F 12.4 °F 24.8 °F 100% 29.45 in 10.0 mi SSW 15.0 mph - N/A   Clear
8:55 AM 26.6 °F 15.2 °F 26.6 °F 100% 29.44 in 10.0 mi SSW 13.8 mph - N/A   Clear
9:15 AM 26.6 °F 14.3 °F 26.6 °F 100% 29.43 in 10.0 mi SSW 16.1 mph - N/A   Clear
9:35 AM 28.4 °F 16.6 °F 28.4 °F 100% 29.43 in 10.0 mi SW 16.1 mph - N/A   Clear
9:55 AM 28.4 °F 17.5 °F 28.4 °F 100% 29.44 in 10.0 mi SW 13.8 mph - N/A   Clear
10:15 AM 28.4 °F 19.1 °F 28.4 °F 100% 29.44 in 10.0 mi SW 10.4 mph - N/A   Clear
10:35 AM 28.4 °F 19.7 °F 28.4 °F 100% 29.43 in 10.0 mi SW 9.2 mph - N/A   Clear
10:55 AM 30.2 °F 25.4 °F 30.2 °F 100% 29.43 in 10.0 mi West 4.6 mph - N/A   Clear
11:15 AM 32.0 °F 26.4 °F 32.0 °F 100% 29.43 in 10.0 mi SW 5.8 mph - N/A   Clear
11:35 AM 32.0 °F 25.6 °F 32.0 °F 100% 29.42 in 10.0 mi SSW 6.9 mph - N/A   Clear
11:55 AM 32.0 °F 24.8 °F 32.0 °F 100% 29.42 in 10.0 mi SSW 8.1 mph - N/A   Clear
12:15 PM 32.0 °F 24.2 °F 32.0 °F 100% 29.41 in 10.0 mi SSW 9.2 mph - N/A   Clear
12:35 PM 32.0 °F 26.4 °F 32.0 °F 100% 29.40 in 10.0 mi SSW 5.8 mph - N/A   Clear
12:55 PM 32.0 °F 25.6 °F 32.0 °F 100% 29.39 in 10.0 mi SSW 6.9 mph - N/A   Clear
1:15 PM 32.0 °F 24.8 °F 32.0 °F 100% 29.38 in 10.0 mi SSW 8.1 mph - N/A   Clear
1:35 PM 32.0 °F 24.8 °F 32.0 °F 100% 29.37 in 10.0 mi South 8.1 mph - N/A   Clear
1:55 PM 32.0 °F 24.8 °F 32.0 °F 100% 29.37 in 10.0 mi SSW 8.1 mph - N/A   Partly Cloudy
2:15 PM 33.8 °F 27.7 °F 32.0 °F 93% 29.37 in 10.0 mi SW 6.9 mph - N/A   Mostly Cloudy
2:35 PM 33.8 °F 26.4 °F 32.0 °F 93% 29.38 in 10.0 mi NNE 9.2 mph - N/A   Mostly Cloudy
2:55 PM 35.6 °F 30.7 °F 32.0 °F 87% 29.40 in 10.0 mi NNW 5.8 mph - N/A   Overcast
3:15 PM 32.0 °F - 32.0 °F 100% 29.41 in 10.0 mi Calm Calm - N/A   Mostly Cloudy
3:35 PM 33.8 °F 26.4 °F 32.0 °F 93% 29.42 in 10.0 mi North 9.2 mph - N/A   Overcast
3:55 PM 32.0 °F 23.6 °F 32.0 °F 100% 29.41 in 10.0 mi North 10.4 mph - N/A   Overcast
4:15 PM 32.0 °F 22.1 °F 32.0 °F 100% 29.41 in 10.0 mi North 13.8 mph - N/A   Mostly Cloudy
4:35 PM 32.0 °F 22.1 °F 32.0 °F 100% 29.41 in 10.0 mi NNW 13.8 mph - N/A   Overcast
4:55 PM 32.0 °F 22.5 °F 32.0 °F 100% 29.42 in 10.0 mi NNW 12.7 mph - N/A   Overcast
5:15 PM 32.0 °F 23.6 °F 32.0 °F 100% 29.43 in 10.0 mi NNW 10.4 mph - N/A   Overcast
5:35 PM 32.0 °F 22.5 °F 32.0 °F 100% 29.44 in 10.0 mi NNW 12.7 mph - N/A   Overcast
5:55 PM 30.2 °F 20.8 °F 30.2 °F 100% 29.45 in 10.0 mi NNW 11.5 mph - N/A   Overcast
6:15 PM 30.2 °F 19.8 °F 30.2 °F 100% 29.46 in 10.0 mi North 13.8 mph - N/A   Overcast
6:35 PM 28.4 °F 18.5 °F 28.4 °F 100% 29.46 in 10.0 mi North 11.5 mph - N/A   Overcast
6:55 PM 28.4 °F 16.6 °F 28.4 °F 100% 29.48 in 10.0 mi NNE 16.1 mph - N/A   Overcast
7:15 PM 26.6 °F 13.1 °F 26.6 °F 100% 29.48 in 10.0 mi NNE 19.6 mph - N/A   Overcast
7:35 PM 24.8 °F 10.0 °F 24.8 °F 100% 29.48 in 2.5 mi NNE 21.9 mph - 0.02 in   Overcast
7:55 PM 23.0 °F 7.2 °F 23.0 °F 100% 29.49 in 1.2 mi NNE 23.0 mph 27.6 mph 0.10 in Rain Light Freezing Rain
8:15 PM 21.2 °F 6.0 °F 21.2 °F 100% 29.50 in 1.2 mi NNE 19.6 mph - 0.03 in Rain Light Freezing Rain
8:35 PM 21.2 °F 5.2 °F 21.2 °F 100% 29.51 in 1.0 mi NNE 21.9 mph - 0.15 in Rain Light Freezing Rain
8:55 PM 19.4 °F 2.5 °F 19.4 °F 100% 29.52 in 0.8 mi North 23.0 mph - 0.39 in Snow Light Snow
9:15 PM 19.4 °F 2.1 °F 19.4 °F 100% 29.53 in 0.5 mi North 24.2 mph 27.6 mph 1.74 in Snow Snow
9:35 PM 19.4 °F 1.8 °F 19.4 °F 100% 29.54 in 0.5 mi North 25.3 mph - 3.45 in Snow Snow
9:55 PM 19.4 °F 1.8 °F 19.4 °F 100% 29.55 in 0.5 mi North 25.3 mph - 3.82 in Snow Snow
10:15 PM 17.6 °F -1.0 °F 17.6 °F 100% 29.55 in 0.8 mi North 26.5 mph - 0.41 in Snow Light Snow
10:35 PM 17.6 °F -0.3 °F 17.6 °F 100% 29.56 in 0.8 mi North 24.2 mph - 0.77 in Snow Light Snow
10:55 PM 17.6 °F -2.2 °F 17.6 °F 100% 29.56 in 0.5 mi North 31.1 mph 36.8 mph 1.19 in Snow Snow
11:15 PM 17.6 °F -1.0 °F 17.6 °F 100% 29.58 in 0.8 mi North 26.5 mph 31.1 mph 0.39 in Snow Light Snow
11:35 PM 15.8 °F -3.7 °F 15.8 °F 100% 29.59 in - North 27.6 mph - 1.01 in Snow Heavy Snow
11:55 PM 15.8 °F -3.7 °F 15.8 °F 100% 29.59 in 0.5 mi North 27.6 mph 32.2 mph 1.83 in Snow Snow